Akron, OH

5:56 PM EST on January 17, 2018 (GMT -0500)
Akron Fulton International

Weather History for KAKR - January, 2013

Change the Weather History Date:

Tuesday, January 1, 2013

  Actual Average (KCAK) Record (KCAK)
Temperature  
Mean Temperature 26 °F -  
Max Temperature 32 °F 35 °F 63 °F (1985)
Min Temperature 19 °F 21 °F -5 °F (1968)
Degree Days  
Heating Degree Days 38    
Moisture  
Dew Point 22 °F    
Average Humidity 81    
Maximum Humidity 93    
Minimum Humidity 66    
Precipitation  
Precipitation 0.01 in - - ()
Sea Level Pressure  
Sea Level Pressure 30.03 in    
Wind  
Wind Speed 9 mph (NW)    
Max Wind Speed 14 mph    
Max Gust Speed -    
Visibility 7 miles    
Events Rain , Snow    
Averages and records for this station are not official NWS values.
T = Trace of Precipitation, MM = Missing Value Source: NWS Daily Summary

Daily Weather History Graph

Daily Weather History Graph

Search for Another Location

Airport or City:

Trip Planner

Search our weather history database for the weather conditions in past years. The results will help you decide how hot, cold, wet, or windy it might be!

Date:

Astronomy

Jan. 01, 2013 Rise Set
Actual Time 7:50 AM EST 5:08 PM EST
Civil Twilight 7:19 AM EST 5:39 PM EST
Nautical Twilight 6:45 AM EST 6:13 PM EST
Astronomical Twilight 6:12 AM EST 6:47 PM EST
Moon 9:40 PM EST (1/1) 10:00 AM EST (1/1)
Length of Visible Light 10h 19m
Length of Day
9h 17m
Waning Gibbous, 83% of the Moon is Illuminated
Jan 1
Waning Gibbous
Jan 4
Last Quarter
Jan 11
New
Jan 18
First Quarter
Jan 26
Full

Hourly Weather History & Observations

Time (EST) Temp. Windchill Dew Point Humidity Pressure Visibility Wind Dir Wind Speed Gust Speed Precip Events Conditions
12:33 AM 32.0 °F 22.1 °F 28.4 °F 87% 29.99 in 8.0 mi West 13.8 mph - N/A   Overcast
12:54 AM 32.0 °F 23.6 °F 28.0 °F 85% 30.03 in 7.0 mi WSW 10.4 mph - N/A   Overcast
1:34 AM 30.2 °F 22.6 °F 28.4 °F 93% 29.98 in 3.0 mi WNW 8.1 mph - 0.00 in Rain Light Freezing Rain
1:45 AM 30.2 °F 22.6 °F 28.4 °F 93% 29.98 in 4.0 mi West 8.1 mph - 0.00 in Rain Light Freezing Rain
1:54 AM 30.9 °F 22.8 °F 28.9 °F 92% 30.01 in 4.0 mi West 9.2 mph - 0.00 in Rain Light Freezing Rain
2:03 AM 30.2 °F 23.4 °F 28.4 °F 93% 29.97 in 5.0 mi West 6.9 mph - 0.00 in   Overcast
2:14 AM 30.2 °F 23.4 °F 28.4 °F 93% 29.97 in 6.0 mi West 6.9 mph - 0.00 in   Overcast
2:54 AM 30.9 °F 24.3 °F 28.9 °F 92% 30.01 in 6.0 mi WSW 6.9 mph - 0.00 in   Overcast
3:54 AM 30.9 °F 24.3 °F 28.0 °F 89% 30.01 in 6.0 mi WSW 6.9 mph - N/A   Overcast
4:37 AM 30.2 °F 22.6 °F 28.4 °F 93% 29.98 in 6.0 mi West 8.1 mph - N/A   Overcast
4:45 AM 30.2 °F 23.4 °F 28.4 °F 93% 29.98 in 6.0 mi West 6.9 mph - N/A   Overcast
4:54 AM 30.2 °F 23.4 °F 28.4 °F 93% 29.98 in 6.0 mi West 6.9 mph - N/A   Overcast
5:24 AM 30.2 °F 26.7 °F 28.4 °F 93% 29.97 in 6.0 mi West 3.5 mph - 0.01 in   Overcast
5:54 AM 30.0 °F 21.7 °F 27.0 °F 88% 30.01 in 4.0 mi NW 9.2 mph - 0.01 in Snow Light Snow
6:35 AM 30.2 °F 22.6 °F 24.8 °F 80% 30.00 in 5.0 mi NNW 8.1 mph - 0.00 in Snow Light Snow
6:54 AM 28.9 °F 21.1 °F 24.1 °F 82% 30.02 in 6.0 mi NNW 8.1 mph - 0.00 in   Haze
7:54 AM 28.9 °F 19.2 °F 23.0 °F 78% 30.04 in 8.0 mi NW 11.5 mph - N/A   Overcast
8:54 AM 28.0 °F 20.8 °F 23.0 °F 81% 30.04 in 6.0 mi NW 6.9 mph - N/A   Haze
9:09 AM 28.4 °F 20.4 °F 23.0 °F 80% 30.03 in 6.0 mi NW 8.1 mph - N/A   Haze
9:47 AM 28.4 °F 21.2 °F 23.0 °F 80% 30.04 in 6.0 mi NW 6.9 mph - N/A   Haze
9:54 AM 28.0 °F 18.6 °F 23.0 °F 81% 30.07 in 6.0 mi WNW 10.4 mph - N/A   Haze
10:54 AM 28.0 °F 18.6 °F 21.9 °F 78% 30.07 in 10.0 mi NNW 10.4 mph - N/A   Overcast
11:54 AM 27.0 °F 16.7 °F 21.0 °F 78% 30.06 in 9.0 mi North 11.5 mph - N/A   Overcast
12:54 PM 25.0 °F 14.2 °F 19.0 °F 78% 30.05 in 6.0 mi North 11.5 mph - N/A   Haze
1:32 PM 24.8 °F 15.3 °F 19.4 °F 80% 30.02 in 10.0 mi North 9.2 mph - N/A   Overcast
1:54 PM 25.0 °F 15.5 °F 18.0 °F 75% 30.05 in 9.0 mi North 9.2 mph - N/A   Overcast
2:11 PM 24.8 °F 15.3 °F 17.6 °F 74% 30.01 in 7.0 mi North 9.2 mph - N/A   Overcast
2:24 PM 24.8 °F 16.1 °F 17.6 °F 74% 29.98 in 9.0 mi North 8.1 mph - N/A   Overcast
2:54 PM 25.0 °F 14.8 °F 17.1 °F 72% 30.05 in 10.0 mi North 10.4 mph - N/A   Overcast
3:05 PM 24.8 °F 15.3 °F 17.6 °F 74% 30.01 in 10.0 mi North 9.2 mph - N/A   Overcast
3:54 PM 24.1 °F 15.2 °F 18.0 °F 77% 30.07 in 9.0 mi North 8.1 mph - N/A   Overcast
4:54 PM 23.0 °F 14.7 °F 16.0 °F 74% 30.08 in 10.0 mi North 6.9 mph - N/A   Overcast
5:54 PM 23.0 °F 18.4 °F 16.0 °F 74% 30.09 in 10.0 mi NNW 3.5 mph - N/A   Overcast
6:54 PM 23.0 °F 15.8 °F 15.1 °F 72% 30.09 in 10.0 mi NNW 5.8 mph - N/A   Overcast
7:54 PM 23.0 °F 15.8 °F 14.0 °F 68% 30.10 in 10.0 mi NNW 5.8 mph - N/A   Overcast
8:54 PM 21.9 °F 13.4 °F 12.9 °F 68% 30.10 in 10.0 mi NW 6.9 mph - N/A   Overcast
9:54 PM 21.9 °F 15.7 °F 12.0 °F 66% 30.11 in 10.0 mi NNW 4.6 mph - N/A   Overcast
10:54 PM 21.0 °F 9.9 °F 12.0 °F 68% 30.12 in 10.0 mi WNW 10.4 mph - N/A   Overcast
11:54 PM 19.9 °F 10.1 °F 12.0 °F 71% 30.12 in 10.0 mi WNW 8.1 mph - N/A   Overcast